When you browse on this site, cookies collect data to enhance your experience and personalize the content and advertising you see.
Visit our Privacy Policy to learn more. By continuing to use the site, you agree to this use of cookies and data.
  • en France
  • Liste des pays
  • À 7 jours
  • Température de l'eau
  • Carte météo
  • Widgets météo
  • user-avatar
    Se connecter

    Météo par heure à La-Rioja

    Ce jour, 20 Février, Jeudi

    Heure Température Précipitation Vent Pression Humidité
    00:00 +26°C° 0 mm 2 m/s 715 mmHg 57%
    01:00 +26°C° 0 mm 2 m/s 715 mmHg 58%
    02:00 +25°C° 0 mm 2 m/s 715 mmHg 59%
    03:00 +25°C° 0 mm 2 m/s 716 mmHg 60%
    04:00 +25°C° 0 mm 2 m/s 716 mmHg 60%
    05:00 +24°C° 0 mm 2 m/s 716 mmHg 61%
    06:00 +25°C° 0 mm 2 m/s 717 mmHg 58%
    07:00 +26°C° 0 mm 2 m/s 717 mmHg 56%
    08:00 +27°C° 0 mm 2 m/s 718 mmHg 53%
    09:00 +27°C° 0 mm 2 m/s 718 mmHg 54%
    10:00 +27°C° 0 mm 3 m/s 718 mmHg 55%
    11:00 +27°C° 0 mm 3 m/s 718 mmHg 56%
    12:00 +28°C° 0 mm 3 m/s 718 mmHg 55%
    13:00 +29°C° 0 mm 2 m/s 717 mmHg 54%
    14:00 +30°C° 0 mm 2 m/s 717 mmHg 52%
    15:00 +30°C° 0 mm 3 m/s 716 mmHg 51%
    16:00 +30°C° 0 mm 3 m/s 716 mmHg 50%
    17:00 +30°C° 0 mm 4 m/s 715 mmHg 49%
    18:00 +29°C° 0 mm 4 m/s 716 mmHg 49%
    19:00 +29°C° 0 mm 3 m/s 717 mmHg 49%
    20:00 +28°C° 0 mm 3 m/s 717 mmHg 49%
    21:00 +27°C° 0 mm 3 m/s 718 mmHg 49%
    22:00 +27°C° 0 mm 2 m/s 719 mmHg 50%
    23:00 +26°C° 0 mm 2 m/s 719 mmHg 50%

    Demain, 21 Février, Vendredi

    Heure Température Précipitation Vent Pression Humidité
    00:00 +25°C° 0 mm 2 m/s 719 mmHg 50%
    01:00 +25°C° 0 mm 2 m/s 720 mmHg 51%
    02:00 +24°C° 0 mm 2 m/s 720 mmHg 51%
    09:00 +23°C° 0 mm 2 m/s 722 mmHg 44%
    10:00 +23°C° 0 mm 1 m/s 722 mmHg 43%
    11:00 +23°C° 0 mm 1 m/s 722 mmHg 44%
    12:00 +23°C° 0 mm 1 m/s 722 mmHg 43%
    13:00 +23°C° 0 mm 2 m/s 721 mmHg 42%
    14:00 +24°C° 0 mm 2 m/s 720 mmHg 40%
    15:00 +25°C° 0 mm 2 m/s 720 mmHg 39%
    16:00 +25°C° 0 mm 2 m/s 720 mmHg 38%
    17:00 +26°C° 0 mm 2 m/s 720 mmHg 37%
    18:00 +25°C° 0 mm 2 m/s 720 mmHg 40%
    19:00 +23°C° 0 mm 2 m/s 720 mmHg 42%
    20:00 +21°C° 0 mm 2 m/s 720 mmHg 45%
    21:00 +23°C° 0 mm 1 m/s 721 mmHg 45%
    22:00 +23°C° 0 mm 1 m/s 721 mmHg 45%
    23:00 +23°C° 0 mm 1 m/s 722 mmHg 45%

    Après-demain, 22 Février, Samedi

    Heure Température Précipitation Vent Pression Humidité
    00:00 +23°C° 0 mm 1 m/s 721 mmHg 45%
    01:00 +23°C° 0 mm 1 m/s 721 mmHg 46%
    02:00 +23°C° 0 mm 1 m/s 720 mmHg 46%
    03:00 +22°C° 0 mm 1 m/s 720 mmHg 49%
    04:00 +19°C° 0 mm 0 m/s 720 mmHg 51%
    05:00 +19°C° 0 mm 0 m/s 719 mmHg 54%
    06:00 +21°C° 0 mm 1 m/s 720 mmHg 50%
    07:00 +22°C° 0 mm 1 m/s 720 mmHg 47%
    08:00 +23°C° 0 mm 2 m/s 720 mmHg 43%
    09:00 +24°C° 0 mm 2 m/s 720 mmHg 41%
    10:00 +25°C° 0 mm 2 m/s 720 mmHg 39%
    11:00 +26°C° 0 mm 3 m/s 720 mmHg 38%
    12:00 +27°C° 0 mm 2 m/s 719 mmHg 37%
    13:00 +27°C° 0 mm 2 m/s 719 mmHg 36%
    14:00 +28°C° 0 mm 2 m/s 718 mmHg 36%
    15:00 +28°C° 0 mm 3 m/s 717 mmHg 35%
    16:00 +29°C° 0 mm 3 m/s 717 mmHg 35%
    17:00 +29°C° 0 mm 4 m/s 716 mmHg 35%
    18:00 +27°C° 0 mm 3 m/s 716 mmHg 38%
    19:00 +26°C° 0 mm 3 m/s 716 mmHg 42%
    20:00 +24°C° 0 mm 2 m/s 716 mmHg 45%
    21:00 +24°C° 0 mm 2 m/s 717 mmHg 47%
    22:00 +23°C° 0 mm 1 m/s 717 mmHg 49%
    23:00 +22°C° 0 mm 1 m/s 717 mmHg 51%

    23 Février, Dimanche

    Heure Température Précipitation Vent Pression Humidité
    00:00 +22°C° 0 mm 1 m/s 717 mmHg 53%
    01:00 +22°C° 0 mm 1 m/s 716 mmHg 54%
    02:00 +21°C° 0 mm 1 m/s 716 mmHg 56%
    03:00 +21°C° 0 mm 1 m/s 715 mmHg 57%
    04:00 +21°C° 0 mm 1 m/s 715 mmHg 58%
    05:00 +20°C° 0 mm 1 m/s 715 mmHg 59%
    06:00 +21°C° 0 mm 1 m/s 715 mmHg 55%
    07:00 +22°C° 0 mm 1 m/s 715 mmHg 51%
    08:00 +24°C° 0 mm 1 m/s 715 mmHg 47%
    09:00 +25°C° 0 mm 1 m/s 715 mmHg 45%
    10:00 +26°C° 0 mm 2 m/s 715 mmHg 42%
    11:00 +27°C° 0 mm 2 m/s 714 mmHg 40%
    12:00 +28°C° 0 mm 2 m/s 714 mmHg 39%
    13:00 +30°C° 0 mm 2 m/s 713 mmHg 37%
    14:00 +31°C° 0 mm 2 m/s 712 mmHg 36%
    15:00 +31°C° 0 mm 2 m/s 712 mmHg 36%
    16:00 +31°C° 0 mm 2 m/s 711 mmHg 36%
    17:00 +31°C° 0 mm 2 m/s 710 mmHg 36%
    18:00 +30°C° 0 mm 2 m/s 710 mmHg 40%
    19:00 +28°C° 0 mm 2 m/s 711 mmHg 43%
    20:00 +27°C° 0 mm 2 m/s 711 mmHg 47%
    21:00 +26°C° 0 mm 1 m/s 711 mmHg 50%
    22:00 +25°C° 0 mm 1 m/s 711 mmHg 54%
    23:00 +25°C° 0 mm 1 m/s 712 mmHg 57%

    24 Février, Lundi

    Heure Température Précipitation Vent Pression Humidité
    00:00 +24°C° 0 mm 1 m/s 711 mmHg 58%
    01:00 +24°C° 0 mm 1 m/s 711 mmHg 60%
    02:00 +22°C° 0 mm 0 m/s 711 mmHg 61%
    03:00 +23°C° 0 mm 1 m/s 710 mmHg 62%
    04:00 +23°C° 0 mm 1 m/s 710 mmHg 63%
    05:00 +23°C° 0 mm 1 m/s 710 mmHg 63%
    06:00 +23°C° 0 mm 1 m/s 710 mmHg 60%
    07:00 +24°C° 0 mm 2 m/s 711 mmHg 56%
    08:00 +25°C° 0 mm 2 m/s 711 mmHg 52%
    09:00 +27°C° 0 mm 2 m/s 711 mmHg 50%
    10:00 +28°C° 0 mm 2 m/s 711 mmHg 47%
    11:00 +29°C° 0 mm 2 m/s 711 mmHg 44%
    12:00 +30°C° 0 mm 2 m/s 711 mmHg 42%
    13:00 +32°C° 0 mm 2 m/s 710 mmHg 39%
    14:00 +34°C° 0 mm 2 m/s 709 mmHg 37%
    15:00 +34°C° 0 mm 2 m/s 709 mmHg 36%
    16:00 +34°C° 0 mm 2 m/s 708 mmHg 35%
    17:00 +34°C° 0 mm 2 m/s 707 mmHg 34%
    18:00 +32°C° 0 mm 2 m/s 707 mmHg 37%
    19:00 +31°C° 0 mm 2 m/s 708 mmHg 40%
    20:00 +29°C° 0 mm 1 m/s 708 mmHg 43%
    21:00 +29°C° 0 mm 1 m/s 708 mmHg 46%
    22:00 +28°C° 0 mm 1 m/s 709 mmHg 48%
    23:00 +27°C° 0 mm 1 m/s 709 mmHg 50%

    25 Février, Mardi

    Heure Température Précipitation Vent Pression Humidité
    00:00 +27°C° 0.1 mm 1 m/s 709 mmHg 51%
    01:00 +27°C° 0.1 mm 1 m/s 709 mmHg 52%
    02:00 +26°C° 0.1 mm 1 m/s 709 mmHg 53%
    03:00 +26°C° 0.1 mm 2 m/s 709 mmHg 55%
    04:00 +25°C° 0.1 mm 2 m/s 709 mmHg 57%
    05:00 +25°C° 0.1 mm 2 m/s 709 mmHg 58%
    06:00 +26°C° 0 mm 2 m/s 709 mmHg 55%
    07:00 +27°C° 0 mm 2 m/s 710 mmHg 52%
    08:00 +28°C° 0 mm 2 m/s 710 mmHg 49%
    09:00 +29°C° 0 mm 2 m/s 710 mmHg 46%
    10:00 +31°C° 0 mm 3 m/s 710 mmHg 42%
    11:00 +33°C° 0 mm 3 m/s 710 mmHg 39%
    12:00 +34°C° 0 mm 3 m/s 709 mmHg 37%
    13:00 +35°C° 0 mm 3 m/s 709 mmHg 35%
    14:00 +36°C° 0 mm 3 m/s 708 mmHg 33%
    15:00 +36°C° 0 mm 3 m/s 708 mmHg 32%
    16:00 +36°C° 0 mm 3 m/s 707 mmHg 32%
    17:00 +36°C° 0 mm 3 m/s 707 mmHg 31%
    18:00 +35°C° 0 mm 2 m/s 708 mmHg 34%
    19:00 +32°C° 0 mm 2 m/s 708 mmHg 37%
    20:00 +31°C° 0 mm 2 m/s 709 mmHg 40%
    21:00 +30°C° 0.1 mm 3 m/s 710 mmHg 42%
    22:00 +30°C° 0.1 mm 3 m/s 711 mmHg 43%
    23:00 +29°C° 0.1 mm 4 m/s 712 mmHg 45%
    Voir plus